Pittsfield, IL

6:22 PM CDT on May 26, 2017 (GMT -0500)
Pittsfield Penstone Municipal

Weather History for KPPQ - January, 2009

Change the Weather History Date:

Friday, January 16, 2009

  Actual Average (KUIN) Record (KUIN)
Temperature  
Mean Temperature 5 °F -  
Max Temperature 15 °F 34 °F 69 °F (1990)
Min Temperature -5 °F 16 °F -19 °F (1977)
Degree Days  
Heating Degree Days 60    
Moisture  
Dew Point -4 °F    
Average Humidity 70    
Maximum Humidity 92    
Minimum Humidity 45    
Precipitation  
Precipitation 0.00 in - - ()
Sea Level Pressure  
Sea Level Pressure 30.64 in    
Wind  
Wind Speed 5 mph (SSE)    
Max Wind Speed 15 mph    
Max Gust Speed 21 mph    
Visibility 10 miles    
Events      
Averages and records for this station are not official NWS values.
T = Trace of Precipitation, MM = Missing Value Source: NWS Daily Summary

Daily Weather History Graph

Daily Weather History Graph

Search for Another Location

Airport or City:

Trip Planner

Search our weather history database for the weather conditions in past years. The results will help you decide how hot, cold, wet, or windy it might be!

Date:

Astronomy

Jan. 16, 2009 Rise Set
Actual Time 7:21 AM CST 5:04 PM CST
Civil Twilight 6:52 AM CST 5:34 PM CST
Nautical Twilight 6:19 AM CST 6:07 PM CST
Astronomical Twilight 5:46 AM CST 6:39 PM CST
Moon 11:50 PM CST (1/16) 10:19 AM CST (1/16)
Length of Visible Light 10h 42m
Length of Day
9h 43m
Waning Gibbous, 64% of the Moon is Illuminated
Jan 16
Waning Gibbous
Jan 17
Last Quarter
Jan 26
New
Feb 2
First Quarter
Feb 9
Full

Hourly Weather History & Observations

Time (CST) Temp. Windchill Dew Point Humidity Pressure Visibility Wind Dir Wind Speed Gust Speed Precip Events Conditions
12:06 AM -4.0 °F - -9.4 °F 78% 30.78 in 10.0 mi Calm Calm - N/A   Clear
12:26 AM -4.0 °F - -9.4 °F 78% 30.78 in 10.0 mi Calm Calm - N/A   Clear
12:47 AM -4.0 °F - -9.4 °F 78% 30.77 in 10.0 mi Calm Calm - N/A   Clear
1:06 AM -5.8 °F - -11.2 °F 77% 30.77 in 10.0 mi Calm Calm - N/A   Clear
1:26 AM -5.8 °F - -9.4 °F 84% 30.77 in 10.0 mi Calm Calm - N/A   Clear
2:26 AM -5.8 °F -14.5 °F -9.4 °F 84% 30.78 in 10.0 mi SW 3.5 mph - N/A   Clear
2:46 AM -5.8 °F - -9.4 °F 84% 30.78 in 10.0 mi Calm Calm - N/A   Clear
3:07 AM -5.8 °F - -9.4 °F 84% 30.78 in 10.0 mi Calm Calm - N/A   Clear
3:26 AM -5.8 °F - -9.4 °F 84% 30.77 in 10.0 mi Calm Calm - N/A   Clear
3:46 AM -5.8 °F - -9.4 °F 84% 30.77 in 10.0 mi Calm Calm - N/A   Clear
4:07 AM -5.8 °F - -9.4 °F 84% 30.78 in 10.0 mi Calm Calm - N/A   Clear
4:26 AM -5.8 °F - -9.4 °F 84% 30.77 in 10.0 mi Calm Calm - N/A   Clear
4:46 AM -5.8 °F - -9.4 °F 84% 30.76 in 10.0 mi Calm Calm - N/A   Clear
5:06 AM -5.8 °F - -9.4 °F 84% 30.76 in 10.0 mi Calm Calm - N/A   Clear
5:27 AM -5.8 °F - -9.4 °F 84% 30.75 in 10.0 mi Calm Calm - N/A   Clear
5:46 AM -5.8 °F - -9.4 °F 84% 30.75 in 10.0 mi Calm Calm - N/A   Clear
6:06 AM -5.8 °F - -7.6 °F 92% 30.75 in 10.0 mi Calm Calm - N/A   Clear
6:26 AM -4.0 °F - -7.6 °F 85% 30.75 in 10.0 mi Calm Calm - N/A   Clear
6:46 AM -2.2 °F -10.4 °F -7.6 °F 78% 30.75 in 10.0 mi South 3.5 mph - N/A   Clear
7:09 AM -4.0 °F -12.4 °F -7.6 °F 85% 30.75 in 7.0 mi SSE 3.5 mph - N/A   Clear
7:26 AM -2.2 °F -10.4 °F -7.6 °F 78% 30.74 in 10.0 mi SSE 3.5 mph - N/A   Clear
7:46 AM -2.2 °F -12.5 °F -5.8 °F 85% 30.73 in 10.0 mi South 4.6 mph - N/A   Clear
8:06 AM -0.4 °F -12.0 °F -5.8 °F 78% 30.72 in 10.0 mi South 5.8 mph - N/A   Scattered Clouds
8:26 AM -0.4 °F -14.7 °F -5.8 °F 78% 30.73 in 10.0 mi SSE 8.1 mph - N/A   Overcast
9:06 AM 1.4 °F -11.3 °F -5.8 °F 72% 30.73 in 10.0 mi South 6.9 mph - N/A   Clear
9:27 AM 3.2 °F -10.3 °F -5.8 °F 66% 30.73 in 10.0 mi South 8.1 mph - N/A   Clear
9:46 AM 5.0 °F -10.0 °F -2.2 °F 72% 30.72 in 10.0 mi SSE 10.4 mph - N/A   Scattered Clouds
10:06 AM 6.8 °F -6.9 °F -2.2 °F 67% 30.72 in 10.0 mi SE 9.2 mph - N/A   Scattered Clouds
10:46 AM 6.8 °F -6.9 °F -2.2 °F 67% 30.70 in 10.0 mi SSE 9.2 mph - N/A   Overcast
11:07 AM 8.6 °F -3.7 °F -2.2 °F 62% 30.69 in 10.0 mi SSE 8.1 mph - N/A   Overcast
11:27 AM 8.6 °F -5.5 °F -2.2 °F 62% 30.68 in 10.0 mi SE 10.4 mph - N/A   Overcast
11:47 AM 8.6 °F -5.5 °F -2.2 °F 62% 30.66 in 10.0 mi SSE 10.4 mph - N/A   Overcast
12:07 PM 8.6 °F -4.7 °F -2.2 °F 62% 30.64 in 10.0 mi SE 9.2 mph - N/A   Overcast
12:26 PM 10.4 °F -3.3 °F -2.2 °F 57% 30.63 in 10.0 mi SE 10.4 mph - N/A   Overcast
12:46 PM 10.4 °F -3.3 °F -2.2 °F 57% 30.62 in 10.0 mi SSE 10.4 mph 16.1 mph N/A   Overcast
1:06 PM 10.4 °F -3.3 °F -4.0 °F 52% 30.61 in 10.0 mi South 10.4 mph - N/A   Overcast
1:26 PM 12.2 °F -1.8 °F -5.8 °F 45% 30.59 in 10.0 mi SSE 11.5 mph - N/A   Mostly Cloudy
1:46 PM 12.2 °F -1.8 °F -5.8 °F 45% 30.58 in 10.0 mi SSE 11.5 mph - N/A   Mostly Cloudy
2:07 PM 12.2 °F -1.8 °F -5.8 °F 45% 30.57 in 10.0 mi SSE 11.5 mph 16.1 mph N/A   Mostly Cloudy
2:26 PM 12.2 °F -2.5 °F -4.0 °F 48% 30.56 in 10.0 mi South 12.7 mph - N/A   Mostly Cloudy
2:46 PM 14.0 °F -0.2 °F -2.2 °F 49% 30.54 in 10.0 mi SSE 12.7 mph - N/A   Mostly Cloudy
3:06 PM 14.0 °F 0.5 °F -2.2 °F 49% 30.53 in 10.0 mi SSE 11.5 mph - N/A   Overcast
3:26 PM 15.8 °F 2.7 °F -0.4 °F 49% 30.52 in 10.0 mi SSE 11.5 mph - N/A   Overcast
4:07 PM 14.0 °F -0.2 °F -0.4 °F 53% 30.51 in 10.0 mi SE 12.7 mph - N/A   Overcast
4:27 PM 14.0 °F -1.4 °F -0.4 °F 53% 30.50 in 10.0 mi SSE 15.0 mph - N/A   Overcast
4:46 PM 14.0 °F -0.8 °F 1.4 °F 57% 30.49 in 10.0 mi SSE 13.8 mph - N/A   Overcast
5:06 PM 14.0 °F -0.2 °F 1.4 °F 57% 30.48 in 10.0 mi SSE 12.7 mph 18.4 mph N/A   Overcast
5:26 PM 12.2 °F -2.5 °F 1.4 °F 62% 30.48 in 10.0 mi SSE 12.7 mph - N/A   Overcast
5:46 PM 12.2 °F -3.1 °F 3.2 °F 67% 30.48 in 10.0 mi SSE 13.8 mph - N/A   Overcast
6:06 PM 12.2 °F -2.5 °F 3.2 °F 67% 30.47 in 10.0 mi SSE 12.7 mph - N/A   Overcast
6:26 PM 12.2 °F -3.1 °F 3.2 °F 67% 30.47 in 10.0 mi South 13.8 mph - N/A   Overcast
6:46 PM 12.2 °F -2.5 °F 3.2 °F 67% 30.46 in 10.0 mi South 12.7 mph - N/A   Overcast
7:06 PM 12.2 °F -1.0 °F 3.2 °F 67% 30.45 in 10.0 mi South 10.4 mph - N/A   Overcast
7:26 PM 12.2 °F -2.5 °F 5.0 °F 73% 30.44 in 10.0 mi SSE 12.7 mph 17.3 mph N/A   Overcast
7:47 PM 12.2 °F -3.1 °F 6.8 °F 79% 30.44 in 10.0 mi South 13.8 mph - N/A   Overcast
8:06 PM 14.0 °F 1.2 °F 6.8 °F 73% 30.43 in 10.0 mi South 10.4 mph - N/A   Overcast
8:26 PM 14.0 °F -1.4 °F 8.6 °F 79% 30.41 in 10.0 mi South 15.0 mph 20.7 mph N/A   Overcast
8:46 PM 14.0 °F -0.2 °F 8.6 °F 79% 30.41 in 10.0 mi South 12.7 mph 18.4 mph N/A   Overcast
9:06 PM 14.0 °F -0.2 °F 8.6 °F 79% 30.39 in 10.0 mi South 12.7 mph 21.9 mph N/A   Overcast
9:27 PM 14.0 °F 0.5 °F 8.6 °F 79% 30.39 in 10.0 mi South 11.5 mph 18.4 mph N/A   Overcast
9:46 PM 14.0 °F -2.0 °F 8.6 °F 79% 30.38 in 10.0 mi South 16.1 mph - N/A   Overcast
10:06 PM 14.0 °F -0.8 °F 8.6 °F 79% 30.37 in 10.0 mi South 13.8 mph 21.9 mph N/A   Overcast
10:26 PM 14.0 °F 0.5 °F 8.6 °F 79% 30.37 in 10.0 mi South 11.5 mph 17.3 mph N/A   Overcast
10:46 PM 14.0 °F 2.0 °F 8.6 °F 79% 30.36 in 10.0 mi South 9.2 mph - N/A   Overcast